Regional Weather Roundup
Issued by NWS

Home | Current Version | Previous Version | Text Only | Print | Product List | Glossary Off
Versions: 1 2 3 4 5 6 7 8 9 10 11 12 13 14 15 16 17 18 19 20 21 22 23 24 25 26 27 28

000
ASUS45 KSLC 231510
RWRUT

UTAH REGIONAL WEATHER ROUNDUP
NATIONAL WEATHER SERVICE SALT LAKE CITY UT
900 AM MDT TUE AUG 23 2016

UTZ001>011-023>025-231600-

NORTHERN UTAH

CITY           SKY/WX    TMP DP  RH WIND       PRES   REMARKS
BRIGHAM CITY     N/A     62  31  30 CALM      30.09S
DUGWAY         MOSUNNY   72  43  35 SE5       30.10
HILL AFB       MOSUNNY   68  35  29 E10       30.10R
LOGAN          SUNNY     60  35  39 NE5       30.11R
OGDEN          MOSUNNY   68  35  29 S8        30.08R
PROVO AIRPORT  MOSUNNY   68  43  40 SE7       30.11R
SALT LAKE CITY PTSUNNY   74  43  32 SE8       30.07R
VERNAL         CLOUDY    65  40  39 CALM      30.16R
WENDOVER       PTSUNNY   70  28  21 CALM      30.10R
HEBER CITY     PTSUNNY   54  43  66 CALM      30.17R
WEST JORDAN    MOSUNNY   71  43  36 S6        30.10S

$$

UTZ012>022-026-027-231600-

SOUTHERN/CENTRAL UTAH

CITY           SKY/WX    TMP DP  RH WIND       PRES   REMARKS
BLANDING       PTSUNNY   65  48  55 SW5       30.29R
BRYCE CANYON   CLOUDY    55  47  74 CALM      30.32R
CEDAR CITY     CLOUDY    59  51  75 S15       30.19R
DELTA          PTSUNNY   68  43  40 CALM      30.13S
MILFORD        CLOUDY    63  54  72 S12       30.15R
MOAB/CYNLANDS  CLOUDY    66  57  72 SE3       30.12S
PRICE          PTSUNNY   64  43  46 CALM      30.20R
ST GEORGE      PTSUNNY   70  54  56 S6        30.12S

$$

REGIONAL REPORTS     COLORADO/ARIZONA

CITY           SKY/WX    TMP DP  RH WIND       PRES   REMARKS
CRAIG, CO      SUNNY     57  41  55 CALM      30.22S
GRAND JUNCTION CLOUDY    66  48  52 SE8       30.17S
RIFLE          CLOUDY    58  47  66 CALM      30.23R
MONTROSE       CLOUDY    59  46  62 SE3       30.25R
CORTEZ         CLOUDY    61  51  70 CALM      30.22S
PAGE, AZ       LGT RAIN  66  56  70 CALM      30.14R
GRAND CANYON   CLOUDY    57  48  72 S3        30.29S
KINGMAN        PTSUNNY   68  58  70 E7        30.14R
FLAGSTAFF      CLOUDY    53  49  86 W3        30.32R

$$

REGIONAL REPORTS    NEVADA/IDAHO/WYOMING

CITY           SKY/WX    TMP DP  RH WIND       PRES   REMARKS
LAS VEGAS, NV  PTSUNNY   73  57  57 VRB3        N/A
ELY            MOSUNNY   55  43  63 S7        30.26R
ELKO           SUNNY     65  30  27 CALM      30.15R
POCATELLO, ID  SUNNY     63  27  25 SW23      30.12R
BURLEY         SUNNY     60  34  37 W8        30.11R
EVANSTON, WY   CLOUDY    61  30  31 S3        30.24R
ROCK SPRINGS   CLOUDY    60  17  18 SW7       30.21R

$$




USA.gov is the U.S. government's official web portal to all federal, state and local government web resources and services.